www.pogodaiklimat.ru

Погода и климат >> Архив погоды >> Франция >> Истр


ПОГОДА в Истре

  • Прогноз погоды в Истре
  • Монитор погоды в Истре

АРХИВ ПОГОДЫ в Истре

Время (UTC), дата Ветер
(напр.,м/с)
 
Видим.   Явления Облачность Т
(С)
Тd
(С)
f
(%)
Тe
(С)
Тes
(С)
Комфортность P
(гПа)
Po
(гПа)
Тmin
(С)
Tmax
(С)
R
(мм)
R24
(мм)
S
(см)
13 16.07 Ю 3-4
{5}
35 км н/о +28.5 +14.3 42 +31 +31 душно 1014.6 1011.9
14 16.07 Ю 3-4
{5}
35 км н/о +28.4 +13.5 40 +30 +30 жарко 1014.5 1011.8
15 16.07 Ю 3-4
{5}
19 км н/о +28.2 +13.7 41 +30 +30 жарко 1014.0 1011.3
16 16.07 Ю 3-4
{4}
40 км н/о +26.0 +16.0 54 +29 +29 душно 1014.1 1011.3
17 16.07 Ю 2-4
{4}
19 км н/о +26.7 +16.3 53 +30 +30 душно 1013.8 1011.1
18 16.07 Ю 2
{6}
35 км н/о +24.9 +17.4 63 +29 +29 душно 1013.9 1011.1 +21.9 +29.8
19 16.07 Ю 2-3
{3}
35 км н/о +23.0 +18.3 75 +29 +29 очень
душно
1014.1 1011.3
20 16.07 ЮВ 1-1
{2}
30 км 8/8
[]
+22.2 +18.8 81 +28 +28 душно 1014.4 1011.6
21 16.07 ЮВ 1-1
{1}
23 км н/о +21.8 +19.0 84 +27 +27 душно 1014.7 1011.9
22 16.07 ЮВ 1-2
{2}
17 км н/о +21.5 +18.7 84 +26 +26 душно 1014.6 1011.8
23 16.07 В 1-1
{2}
21 км н/о +21.3 +18.5 84 +26 +26 душно 1014.4 1011.6
00 17.07 В 2-2
{2}
18 км н/о +21.4 +18.4 83 +26 +26 душно 1014.1 1011.3
01 17.07 В 2-2
{2}
24 км н/о +20.9 +17.5 81 +26 +26 душно 1013.6 1010.8
02 17.07 СВ 1-2
{2}
23 км н/о +19.1 +16.5 85 +22 +22 комфорт 1013.1 1010.3
03 17.07 штиль 0-1
{1}
26 км н/о +18.3 +15.5 84 +19 +19 1012.9 1010.1
04 17.07 С 2-2
{2}
30 км н/о +17.9 +15.0 83 +19 +19 1012.9 1010.1
05 17.07 С 2-2
{2}
14 км н/о +19.2 +15.3 78 +21 +21 комфорт 1013.1 1010.3
06 17.07 С 1
{4}
19 км н/о +22.0 +15.6 67 +26 +26 душно 1013.3 1010.5 +17.9 +24.9
07 17.07 СЗ 1-2
{2}
25 км н/о +24.0 +15.8 60 +27 +27 жарко 1013.6 1010.8
08 17.07 С 2-2
{3}
50 км н/о +26.0 +14.1 48 +28 +28 жарко 1013.5 1010.7
09 17.07 С 2-3
{3}
40 км н/о +27.3 +12.9 41 +29 +29 жарко 1013.0 1010.3
10 17.07 СЗ 1-2
{3}
19 км н/о +29.5 +13.3 37 +31 +31 жарко 1012.9 1010.2
11 17.07 С 2-4
{4}
19 км н/о +31.9 +11.1 28 +32 +32 жарко 1012.5 1009.8
12 17.07 С 2-5
{6}
15 км н/о +32.5 +9.3 24 +32 +32 жарко 1012.1 1009.4
13 17.07 З 2-4
{5}
50 км н/о +33.8 +9.1 22 +33 +33 жарко 1011.4 1008.7
14 17.07 ЮЗ 4-6
{6}
40 км н/о +32.9 +12.5 29 +33 +33 жарко 1011.2 1008.5
15 17.07 ЮЗ 4-6
{6}
26 км н/о +32.8 +10.8 26 +32 +32 жарко 1011.0 1008.3
16 17.07 ЮЗ 9-6
{12}
21 км н/о +30.6 +11.0 30 +31 +31 жарко 1010.9 1008.2
17 17.07 ЮЗ 8-5
{11}
28 км н/о +30.6 +12.5 33 +31 +31 жарко 1010.7 1008.0
18 17.07 ЮЗ 6-4
{10}
45 км н/о +30.0 +12.9 35 +31 +31 жарко 1010.3 1007.6 +22.0 +34.4
19 17.07 ЮЗ 6-4
{8}
45 км н/о +26.5 +15.5 51 +30 +30 душно 1010.6 1007.9
20 17.07 ЮЗ 6
{9}
40 км н/о +25.0 +17.2 62 +29 +29 душно 1011.0 1008.2
21 17.07 В 2-2
{5}
17 км н/о +24.3 +17.8 67 +28 +28 душно 1011.2 1008.4
22 17.07 В 1-2
{2}
26 км н/о +23.8 +18.7 73 +28 +28 душно 1010.8 1008.0
23 17.07 СВ 2-2
{4}
27 км н/о +22.6 +17.9 75 +28 +28 душно 1010.8 1008.0
00 18.07 С 1-1
{2}
25 км н/о +21.4 +16.6 74 +25 +25 комфорт 1010.5 1007.7
01 18.07 С 1-1
{2}
30 км н/о +21.1 +15.9 72 +24 +24 комфорт 1010.4 1007.6
02 18.07 СЗ 1-2
{2}
23 км н/о +20.7 +16.1 75 +25 +25 комфорт 1010.5 1007.7
03 18.07 З 2-2
{4}
23 км н/о +19.7 +16.2 80 +22 +22 комфорт 1010.6 1007.8
04 18.07 З 3-2
{4}
27 км н/о +19.9 +14.7 72 +22 +22 комфорт 1010.9 1008.1
05 18.07 СЗ 4-3
{5}
40 км н/о +21.5 +12.1 55 +24 +24 комфорт 1011.3 1008.5
06 18.07 З 3
{10}
35 км н/о +24.6 +10.8 42 +26 +26 жарко 1011.9 1009.1 +19.7 +30.0
07 18.07 СЗ 4-6
{6}
15 км н/о +26.7 +10.4 36 +27 +27 жарко 1012.3 1009.6
08 18.07 З 4-5
{6}
12 км н/о +28.2 +11.3 35 +29 +29 жарко 1012.4 1009.7
09 18.07 СЗ 4-6
{6}
12 км н/о +29.9 +9.9 29 +30 +30 жарко 1012.2 1009.5
10 18.07 СЗ 4-6
{6}
15 км н/о +31.2 +9.4 26 +31 +31 жарко 1012.1 1009.4
11 18.07 З 3-5
{6}
19 км н/о +32.4 +8.6 23 +31 +31 жарко 1011.8 1009.1
12 18.07 З 4-7
{7}
16 км н/о +33.1 +8.5 22 +32 +32 жарко 1011.4 1008.7
13 18.07 З 4-6
{6}
15 км н/о +34.1 +8.7 21 +33 +33 жарко 1011.1 1008.4
14 18.07 З 4-6
{6}
15 км н/о +33.2 +11.1 26 +33 +33 жарко 1011.1 1008.4
15 18.07 ЮЗ 5-7
{7}
11 км н/о +32.5 +12.2 29 +33 +33 жарко 1010.7 1008.0
16 18.07 ЮЗ 5-7
{7}
10 км н/о +31.7 +11.0 28 +32 +32 жарко 1010.8 1008.1
17 18.07 ЮЗ 4-6
{7}
11 км н/о +30.7 +11.1 30 +31 +31 жарко 1010.8 1008.1
18 18.07 ЮЗ 3-5
{6}
19 км н/о +30.3 +11.8 32 +31 +31 жарко 1011.0 1008.3 +24.6 +34.3
19 18.07 З 3-4
{5}
40 км н/о +28.0 +13.5 41 +30 +30 жарко 1011.5 1008.8
20 18.07 З 3-4
{4}
60 км н/о +27.2 +10.0 34 +28 +28 жарко 1012.1 1009.4
21 18.07 З 2-3
{4}
60 км н/о +25.0 +12.2 45 +27 +27 жарко 1012.7 1009.9
22 18.07 З 2-3
{3}
55 км н/о +24.0 +11.3 45 +25 +25 комфорт 1013.0 1010.2
23 18.07 З 2-2
{3}
55 км н/о +22.6 +11.3 49 +25 +25 комфорт 1013.4 1010.6
00 19.07 З 2-2
{3}
50 км н/о +21.8 +11.5 52 +24 +24 комфорт 1013.6 1010.8
01 19.07 З 2-2
{3}
55 км н/о +21.1 +11.1 53 +23 +23 комфорт 1013.6 1010.8
02 19.07 СЗ 2-2
{2}
50 км н/о +21.5 +10.6 50 +23 +23 комфорт 1013.9 1011.1
03 19.07 С 1-1
{2}
50 км н/о +22.0 +10.5 48 +24 +24 комфорт 1014.2 1011.4
04 19.07 С 1-2
{2}
50 км н/о +21.4 +10.8 51 +23 +23 комфорт 1014.5 1011.7
05 19.07 СЗ 1-1
{2}
35 км н/о +21.6 +11.0 51 +23 +23 комфорт 1014.9 1012.1
06 19.07 С 2
{4}
45 км н/о +24.0 +10.6 43 +25 +25 комфорт 1015.3 1012.5 +20.1 +30.1
07 19.07 СЗ 2-3
{3}
40 км н/о +25.4 +10.4 39 +26 +26 жарко 1015.6 1012.8
08 19.07 С 2-3
{3}
40 км н/о +26.8 +11.7 39 +28 +28 жарко 1015.8 1013.0
09 19.07 СЗ 1-2
{3}
40 км н/о +28.4 +12.3 37 +30 +30 жарко 1015.9 1013.2
10 19.07 СЗ 1-2
{2}
19 км н/о +30.3 +11.8 32 +31 +31 жарко 1015.7 1013.0
11 19.07 Ю 3-5
{5}
19 км н/о +30.8 +13.6 35 +32 +32 жарко 1015.5 1012.8
12 19.07 Ю 4-5
{5}
19 км н/о +30.4 +13.7 36 +32 +32 жарко 1015.3 1012.6
13 19.07 Ю 4-5
{5}
18 км н/о +30.0 +14.1 38 +32 +32 жарко 1015.3 1012.6
14 19.07 Ю 3-5
{5}
18 км н/о +30.6 +12.9 34 +32 +32 жарко 1015.2 1012.5
15 19.07 Ю 4-5
{5}
19 км н/о +29.1 +13.7 39 +31 +31 жарко 1015.0 1012.3
17 19.07 Ю 3-3
{5}
30 км н/о +27.6 +12.4 39 +29 +29 жарко 1014.6 1011.9
18 19.07 Ю 2-3
{4}
40 км н/о +26.2 +14.6 49 +29 +29 жарко 1015.0 1012.2 +24.0 +31.4
19 19.07 ЮВ 2-2
{3}
35 км н/о +23.7 +17.0 66 +27 +27 жарко 1015.3 1012.5
20 19.07 Ю 2-2
{2}
35 км н/о +23.0 +14.8 60 +27 +27 душно 1015.7 1012.9
21 19.07 В 1-2
{2}
35 км н/о +22.8 +13.8 57 +26 +26 жарко 1015.9 1013.1
22 19.07 В 1-2
{2}
28 км н/о +22.5 +14.9 62 +26 +26 жарко 1016.1 1013.3
23 19.07 В 1-1
{2}
25 км н/о +20.9 +15.7 72 +26 +26 душно 1016.3 1013.5
00 20.07 В 1-2
{2}
17 км н/о +21.1 +17.5 80 +25 +25 комфорт 1016.0 1013.2
01 20.07 С 1-1
{2}
16 км н/о +19.9 +16.5 81 +24 +24 комфорт 1015.9 1013.1
02 20.07 СВ 1-2
{2}
11 км н/о +19.5 +17.8 90 +23 +23 комфорт 1015.9 1013.1
03 20.07 штиль 0-1
{1}
9000 м 8/8 300 м
[]
+19.7 +16.9 84 +22 +22 комфорт 1016.3 1013.5
05 20.07 СВ 1-2
{2}
15 км н/о +19.5 +16.9 85 +23 +23 комфорт 1016.5 1013.7
06 20.07 СВ 1
{3}
13 км н/о +23.3 +19.0 77 +30 +30 очень
душно
1016.7 1013.9 +18.8 +26.1
07 20.07 В 1-2
{2}
16 км н/о +24.8 +19.2 71 +30 +30 душно 1017.3 1014.5
08 20.07 Ю 2-3
{3}
19 км н/о +27.3 +19.4 62 +33 +33 очень
душно
1017.9 1015.2
09 20.07 Ю 3-4
{4}
22 км н/о +26.5 +19.4 65 +32 +32 очень
душно
1018.8 1016.0
10 20.07 ЮВ 2-3
{4}
19 км н/о +28.1 +19.6 60 +34 +34 очень
душно
1018.5 1015.8
11 20.07 ЮВ 3 29 км 8/8
[]
+28.8 +18.9 55 +34 +37 очень
душно
1017.8 1015.1
12 20.07 Ю 4-5
{5}
35 км н/о +29.4 +18.8 53 +35 +35 очень
душно
1017.6 1014.9
13 20.07 Ю 4-5
{6}
19 км н/о +29.1 +19.7 57 +35 +35 очень
душно
1017.5 1014.8
14 20.07 Ю 4-5
{6}
25 км н/о +29.2 +18.6 53 +34 +34 очень
душно
1017.8 1015.1
15 20.07 Ю 4-5
{5}
19 км н/о +28.1 +19.6 60 +34 +34 очень
душно
1017.7 1015.0
16 20.07 Ю 3-5
{5}
22 км н/о +27.6 +18.9 59 +33 +33 очень
душно
1017.8 1015.1
17 20.07 Ю 3-3
{5}
30 км н/о +27.0 +19.1 62 +32 +32 очень
душно
1018.1 1015.3
18 20.07 Ю 3-3
{4}
26 км н/о +26.2 +18.8 64 +31 +31 очень
душно
1018.1 1015.3 +23.3 +30.6
19 20.07 Ю 2-3
{3}
27 км н/о +24.4 +19.9 76 +30 +30 очень
душно
1018.7 1015.9
20 20.07 Ю 2-2
{3}
21 км н/о +23.5 +19.8 80 +29 +29 душно 1019.4 1016.6
21 20.07 ЮВ 1-1
{2}
17 км н/о +23.0 +19.6 81 +30 +30 очень
душно
1019.6 1016.8
22 20.07 СВ 1-2
{2}
16 км н/о +22.0 +19.2 84 +27 +27 душно 1019.8 1017.0
23 20.07 штиль 0
{2}
6000 м н/о +21.7 +19.3 86 +27 +27 душно 1020.0 1017.2
00 21.07 С 1-1
{1}
14 км н/о +21.4 +19.1 87 +26 +26 душно 1020.2 1017.4
01 21.07 штиль 0-1
{1}
14 км н/о +21.3 +18.7 85 +26 +26 душно 1020.2 1017.4
02 21.07 СЗ 1-1
{1}
15 км н/о +21.0 +18.2 84 +26 +26 душно 1020.3 1017.5
03 21.07 С 1-2
{2}
19 км 9/0
[]
+20.5 +17.7 84 +25 +25 комфорт 1020.1 1017.3
04 21.07 В 1 12 км 10/10 2000 м
[]
+22.2 +19.6 85 +28 +28 душно 1019.4 1016.6
05 21.07 С 1-2
{5}
20 км н/о +21.2 +18.0 82 +25 +25 комфорт 1020.4 1017.6
06 21.07 СЗ 1
{2}
27 км н/о +22.7 +18.2 76 +28 +28 душно 1020.5 1017.7 +20.3 +26.2
07 21.07 С 1-1
{1}
27 км н/о +25.1 +17.3 62 +29 +29 душно 1020.5 1017.7
08 21.07 СЗ 2-3
{3}
29 км н/о +26.5 +17.6 58 +31 +31 душно 1020.9 1018.1
09 21.07 С 2-3
{3}
40 км н/о +28.4 +17.9 53 +33 +33 очень
душно
1020.5 1017.8
10 21.07 С 2-2
{3}
45 км н/о +30.1 +13.8 37 +32 +32 жарко 1020.5 1017.8
11 21.07 З 2-3
{3}
25 км н/о +30.9 +14.1 36 +33 +33 душно 1020.3 1017.6
12 21.07 З 2-3
{3}
19 км н/о +32.3 +15.8 37 +35 +35 очень
душно
1020.0 1017.3
13 21.07 ЮЗ 2-4
{4}
19 км н/о +32.6 +16.0 37 +35 +35 душно 1019.6 1016.9
14 21.07 З 2-4
{4}
19 км н/о +33.1 +17.3 39 +37 +37 очень
душно
1019.4 1016.7
15 21.07 ЮЗ 3-5
{5}
35 км н/о +32.4 +15.4 36 +35 +35 душно 1019.4 1016.7
16 21.07 Ю 3-4
{5}
30 км н/о +31.3 +13.6 34 +33 +33 жарко 1019.1 1016.4
17 21.07 ЮЗ 3-4
{4}
35 км н/о +30.3 +14.4 38 +32 +32 жарко 1019.2 1016.5
18 21.07 ЮЗ 3-3
{3}
40 км н/о +28.6 +16.2 47 +32 +32 душно 1019.5 1016.8 +22.8 +33.6
19 21.07 ЮЗ 2-3
{4}
40 км н/о +26.3 +17.9 60 +31 +31 душно 1020.1 1017.3
20 21.07 З 1-2
{3}
35 км н/о +25.0 +18.7 68 +30 +30 душно 1020.6 1017.8
21 21.07 штиль 0-1
{1}
45 км н/о +24.4 +18.8 71 +29 +29 душно 1020.9 1018.1
22 21.07 ЮЗ 1-1
{1}
30 км н/о +24.2 +20.1 78 +30 +30 очень
душно
1021.2 1018.4
23 21.07 Ю 1-1
{1}
27 км н/о +23.8 +20.3 81 +29 +29 душно 1021.4 1018.6
00 22.07 штиль 0-1
{1}
21 км н/о +23.7 +20.6 83 +30 +30 очень
душно
1021.3 1018.5
01 22.07 Ю 1-1
{1}
16 км н/о +23.4 +20.3 83 +31 +31 очень
душно
1021.2 1018.4
02 22.07 В 1-1
{1}
14 км н/о +23.1 +20.2 84 +30 +30 очень
душно
1020.8 1018.0
03 22.07 СВ 1-2
{2}
17 км н/о +22.1 +20.0 88 +28 +28 душно 1020.5 1017.7
04 22.07 С 1-1
{1}
16 км 8/8
[]
+22.2 +20.1 88 +28 +28 душно 1020.6 1017.8
05 22.07 С 2-2
{2}
19 км н/о +21.9 +17.3 75 +26 +26 душно 1020.8 1018.0
06 22.07 С 1
{3}
25 км н/о +24.5 +18.2 68 +29 +29 душно 1021.2 1018.4 +21.6 +28.6
07 22.07 С 1-1
{1}
28 км н/о +26.5 +18.1 60 +31 +31 душно 1021.2 1018.4
08 22.07 СЗ 1-2
{2}
30 км н/о +28.6 +17.8 52 +33 +33 очень
душно
1021.2 1018.5
09 22.07 СЗ 1-2
{2}
40 км н/о +30.3 +17.7 47 +35 +35 очень
душно
1021.2 1018.5
10 22.07 Ю 2-3
{3}
17 км н/о +31.8 +20.7 52 +39 +39 очень
душно
1021.2 1018.5
11 22.07 Ю 2-4
{4}
19 км н/о +31.3 +20.0 51 +38 +38 очень
душно
1021.0 1018.3
12 22.07 Ю 3-4
{5}
19 км н/о +31.4 +20.0 51 +38 +38 очень
душно
1020.8 1018.1
13 22.07 Ю 3-5
{5}
19 км н/о +30.6 +20.2 54 +37 +37 очень
душно
1020.6 1017.9
14 22.07 Ю 4-5
{5}
19 км н/о +29.9 +19.0 52 +35 +35 очень
душно
1020.3 1017.6
15 22.07 ЮВ 4-5
{5}
19 км н/о +29.4 +20.5 59 +36 +36 очень
душно
1020.1 1017.4
16 22.07 Ю 4-5
{5}
29 км н/о +28.5 +21.3 65 +36 +36 очень
душно
1019.8 1017.1
17 22.07 Ю 3-4
{5}
27 км н/о +28.5 +20.8 63 +36 +36 очень
душно
1019.6 1016.9
18 22.07 Ю 3-4
{4}
19 км н/о +27.3 +21.8 72 +35 +35 очень
душно
1019.5 1016.8 +24.6 +32.1
20 22.07 ЮВ 2-2
{3}
14 км н/о +25.2 +23.3 89 +34 +34 очень
душно
1020.2 1017.4
21 22.07 ЮВ 1-2
{2}
12 км н/о +25.0 +23.1 89 +33 +33 очень
душно
1020.1 1017.3
22 22.07 ЮВ 1-1
{2}
12 км н/о +25.0 +22.3 85 +33 +33 очень
душно
1019.9 1017.1
23 22.07 В 1-1
{1}
12 км н/о +24.6 +21.7 84 +31 +31 очень
душно
1019.9 1017.1
00 23.07 СВ 1-1
{1}
10 км н/о +24.2 +21.7 86 +31 +31 очень
душно
1019.5 1016.7
01 23.07 СЗ 1-1
{1}
12 км н/о +24.1 +21.4 85 +31 +31 очень
душно
1019.3 1016.5
02 23.07 СВ 1-1
{2}
16 км н/о +23.0 +20.3 85 +30 +30 очень
душно
1019.0 1016.2
03 23.07 СВ 1-2
{2}
17 км н/о +22.6 +19.4 82 +29 +29 очень
душно
1018.7 1015.9
04 23.07 СВ 1-2
{2}
17 км н/о +22.3 +19.1 82 +28 +28 душно 1018.6 1015.8
05 23.07 СВ 2-2
{2}
14 км н/о +22.7 +18.7 78 +28 +28 душно 1018.7 1015.9
06 23.07 СВ 1
{4}
15 км н/о +24.9 +19.3 71 +30 +30 душно 1018.7 1015.9 +22.3 +27.3
07 23.07 В 1-1
{2}
19 км н/о +28.0 +19.8 61 +34 +34 очень
душно
1018.7 1016.0
08 23.07 Ю 1-2
{2}
18 км н/о +29.3 +20.5 59 +36 +36 очень
душно
1018.9 1016.2
09 23.07 ЮЗ 1-3
{3}
12 км н/о +30.8 +21.3 57 +39 +39 очень
душно
1018.7 1016.0
10 23.07 Ю 2-3
{3}
17 км н/о +32.9 +19.0 44 +38 +38 очень
душно
1018.7 1016.0
11 23.07 Ю 2-3
{4}
19 км н/о +33.0 +17.2 39 +37 +37 очень
душно
1018.7 1016.0
12 23.07 Ю 3-4
{4}
19 км н/о +33.9 +17.6 38 +38 +38 очень
душно
1018.3 1015.6

 

Местоположение метеостанции Истр (Франция): широта 43.52 долгота 4.92 высота над уровнем моря 24 м.

В архиве по умолчанию представлена погода в Истре за последнюю неделю. Архивные данные за месяц целиком и за предыдущие месяцы, начиная с января 2011 года, Вы можете получить, выбрав интересующий диапазон дат из раскрывающегося списка и нажав кнопку "Ввод!".


*Определитесь, кто Вы:
робот инопланетянин человек

Внимание! Время в таблицах - всемирное. Для получения местного времени необходимо прибавить поправку, которая равна 1 ч.

Смотрите также архив погоды в соседних городах и на ближайших метеорологических станциях:

Погода в Салон-де-Провансе (Франция) (17 км)
Погода на Ла Куроне (Франция) (24 км)
Погода в Мариньяне (Франция) (26 км)
Погода в Авиньон (Франция) (43 км)
Погода в Ниме (Франция) (48 км)
Погода в Ним аэропорту (Франция) (57 км)
Погода в Карпентрасе (Франция) (63 км)
Погода в Ла-Сьоте (Франция) (65 км)
Погода в Оранже (Франция) (68 км)
Погода в Монпелье (Франция) (77 км)

Пояснения к столбцам:

Ветер - указаны скорость ветра в м/с - средняя за 10 мин, порывы в срок и между сроками (в фигурных скобках) и направление, откуда дует ветер: С - северный, СВ - северо-восточный, В - восточный, ЮВ - юго-восточный, Ю - южный, ЮЗ - юго-западный, З - западный, СЗ - северо-западный.
Видимость - горизонтальная дальность видимости в метрах или километрах. При видимости от 1 до 10 км при отсутствии осадков обычно наблюдается дымка, при ухудшении видимости до 1 км и менее - туман. В сухую погоду видимость может ухудшаться дымом, пылью или мглою.
Явления - указаны атмосферные явления, наблюдавшиеся в срок или в последний час перед сроком; фигурными скобками обозначены явления, наблюдавшиеся между сроками (за 1-3 часа до срока); квадратными скобками обозначены град или гололедные отложения с указанием их диаметра в мм.
Облачность - указаны через наклонную черту общая и нижняя облачность в баллах и высота нижней границы облаков в метрах; квадратными скобками обозначены формы облаков: Ci - перистые, Cs - перисто-слоистые, Cc - перисто-кучевые, Ac - высококучевые, As - высокослоистые, Sc - слоисто-кучевые, Ns - слоисто-дождевые, Cu - кучевые, Cb - кучево-дождевые. Подробнее классификацию облаков см. в Атласе облаков (PDF).
T - Температура воздуха - температура, измеренная на высоте 2 м над землей.
Td - Температура точки росы - температура, при понижении до которой содержащийся в воздухе водяной пар достигнет насыщения.
f - Относительная влажность воздуха - влажноcть воздуха, измеренная на высоте 2 м над землей.
Te - Эффективная температура - температура, которую ощущает одетый по сезону человек в тени. Характеристика душности погоды. При расчете учитывается влияние влажности воздуха и скорости ветра на теплоощущения человека.
Tes - Эффективная температура на солнце - температура, которую ощущает человек, с поправкой на солнечный нагрев. Характеристика знойности погоды. Зависит от высоты солнца над горизонтом, облачности и скорости ветра. Ночью, в пасмурную погоду, а также при ветре 12 м/с и более поправка равна нулю.
P - Атмосферное давление - приведенное к уровню моря атмосферное давление.
Po - Атмосферное давление - измеренное на уровне метеостанции атмосферное давление.
Tmin - Минимальная температура - минимум температуры воздуха на высоте 2 м над землей.
Tmax - Максимальная температура - максимум температуры воздуха на высоте 2 м над землей.
R - Количество осадков - Количество выпавших осадков за период времени, мм. При наведении курсора мыши на число - период времени, за который выпало указанное количество осадков.
R24 - Количество осадков - Количество выпавших осадков за 24 часа, мм.
S - Снежный покров - Высота снежного покрова, см. При наведении курсора мыши на число - состояние снежного покрова и степень покрытия местности в баллах.